[[{"header":{"parameterUnit":"m.s-1","parameterCategory":1,"la1":30.2991,"la2":30.254,"lo1":-89.0895,"lo2":-89.0444,"dy":0.0017,"dx":0.0017,"nx":28,"ny":28,"refTime":"2025-05-22T21:00:00:Z","depth":0,"parameterNumber":2,"parameterNumberName":"U-component_of_WINDS"},"data":[0,0,0,0,0,0,0,0,0,0,0,0,0,0,0,0,0,0,0,0,0,0,0,0,0,0,0,0,0,0,0,0,0,0,0,0,0,0,0,0,0,0,0,0,0,0,0,0,0,0,0,0,0,0,0,0,0,0,-4.2075,-4.2075,0,-4.2041,-4.2041,-4.204,-4.1926,-4.1923,-4.1921,-4.1918,-4.1885,-4.1887,-4.1888,0,0,0,0,0,0,0,0,0,0,0,0,0,-4.2047,-4.2048,-4.2075,-4.2075,-4.2075,-4.2041,-4.2041,-4.204,-4.1926,-4.1923,-4.192,-4.1917,-4.1885,-4.1887,-4.1888,0,0,0,0,0,0,0,0,0,0,0,0,0,-4.2041,-4.2048,-4.2075,-4.2014,-4.2008,-4.2041,-4.2041,-4.204,-4.1927,-4.1923,-4.1919,-4.1916,-4.1884,-4.1886,-4.1889,-4.198,0,0,-4.1896,-4.1896,0,0,0,0,0,0,0,0,-4.2041,-4.2042,-4.2023,-4.2018,-4.2011,-4.1984,-4.2018,-4.202,-4.1928,-4.1958,-4.1918,-4.1914,-4.1921,-4.192,-4.1922,-4.1978,-4.1977,-4.1896,-4.1897,-4.1898,-4.1899,0,0,0,0,0,0,0,-4.2042,-4.2043,-4.2062,-4.2023,-4.2016,-4.1989,-4.1984,-4.2018,-4.1962,-4.1955,-4.1946,-4.1944,-4.1917,-4.192,-4.1921,-4.1976,-4.1896,-4.1898,-4.1899,-4.19,-4.2107,-4.2111,0,0,0,0,0,0,-4.205,-4.2044,-4.2063,-4.2061,-4.2017,-4.1993,-4.1987,-4.1997,-4.1961,-4.1952,-4.1947,-4.1939,-4.1918,-4.1918,-4.1919,-4.2024,-4.1898,-4.19,-4.1901,-4.2103,-4.2108,-4.2113,0,0,0,0,0,0,-4.205,-4.2053,-4.2064,-4.205,-4.2049,-4.1997,-4.2009,-4.1998,-4.2001,-4.1955,-4.1945,-4.196,-4.1915,-4.1916,-4.1966,-4.2021,-4.1901,-4.1903,-4.2098,-4.2105,-4.211,-4.2234,0,0,0,0,0,0,-4.205,-4.2054,-4.2087,-4.2052,-4.2051,-4.2111,-4.2012,-4.2,-4.2005,-4.1993,-4.1965,-4.1956,-4.1912,-4.1963,-4.1968,-4.2022,-4.1905,-4.2093,-4.2101,-4.2108,-4.2225,-4.2244,-4.226,0,0,0,0,0,-4.2049,-4.2123,-4.2089,-4.2092,-4.209,-4.2114,-4.2113,-4.2061,-4.201,-4.2043,-4.2014,-4.1957,-4.2015,-4.1969,-4.1974,-4.2029,-4.2089,-4.2099,-4.2108,-4.2217,-4.224,-4.226,0,0,0,0,0,0,-4.2165,-4.2117,-4.2079,-4.2143,-4.2134,-4.2094,-4.2134,-4.2087,-4.2092,-4.2081,-4.2016,-4.2011,-4.2071,-4.2055,-4.2005,-4.2117,-4.2043,-4.2054,-4.2124,-4.2146,-4.2163,-4.2165,-4.1907,0,0,0,0,0,-4.2199,-4.2221,-4.2178,-4.2239,-4.2236,-4.2187,-4.2195,-4.2156,-4.2143,-4.2139,-4.2113,-4.2105,-4.2121,-4.2133,-4.2145,-4.2223,-4.2216,-4.2264,-4.2282,-4.2297,-4.2306,-4.2348,-4.2369,-4.2143,-4.2143,-4.2143,0,0,-4.2267,-4.2244,-4.2261,-4.2262,-4.2249,-4.2275,-4.2184,-4.2214,-4.2233,-4.2144,-4.2189,-4.2171,-4.2157,-4.2222,-4.2249,-4.2211,-4.2368,-4.2308,-4.2321,-4.2322,-4.236,-4.2381,-4.2401,-4.215,-4.2148,-4.2147,0,0,-4.2405,-4.2389,-4.2438,-4.2429,-4.2412,-4.238,-4.2392,-4.2361,-4.2345,-4.239,-4.2324,-4.2347,-4.2376,-4.2369,-4.2369,-4.2509,-4.2457,-4.2515,-4.2607,-4.2648,-4.2666,-4.2682,-4.2732,-4.2751,-4.2525,-4.2526,-4.2526,0,-4.2492,-4.2527,-4.247,-4.2506,-4.2509,-4.243,-4.248,-4.2474,-4.2463,-4.2467,-4.2425,-4.2461,-4.2446,-4.2509,-4.2544,-4.2546,-4.256,-4.2517,-4.2668,-4.2683,-4.2697,-4.2744,-4.2763,-4.2533,-4.2532,-4.2531,-4.2531,0,-4.2636,-4.2662,-4.2704,-4.2695,-4.2703,-4.2746,-4.2698,-4.2713,-4.2674,-4.2647,-4.2695,-4.2675,-4.2682,-4.2695,-4.2657,-4.2754,-4.273,-4.268,-4.2603,-4.2726,-4.277,-4.2787,-4.2543,-4.254,-4.2538,-4.2537,0,0,-4.2842,-4.2804,-4.282,-4.2816,-4.2794,-4.2813,-4.2855,-4.2862,-4.2877,-4.2873,-4.2906,-4.2935,-4.2888,-4.2889,-4.285,-4.2887,-4.3,-4.2831,-4.283,-4.2863,-4.3107,-4.3145,-4.3167,-4.2967,-4.297,-4.2973,-4.3108,0,-4.2973,-4.3039,-4.2991,-4.3066,-4.309,-4.3018,-4.3054,-4.3045,-4.3022,-4.304,-4.3014,-4.3035,-4.2972,-4.2972,-4.3005,-4.2979,-4.3048,-4.2969,-4.2998,-4.3,-4.3003,-4.3189,-4.3229,-4.3357,-4.3125,-4.3127,-4.3129,0,-4.3133,-4.3136,-4.3214,-4.3189,-4.3198,-4.3231,-4.3235,-4.3253,-4.3243,-4.3224,-4.3227,-4.318,-4.322,-4.3147,-4.3202,-4.315,-4.3159,-4.3149,-4.3153,-4.3152,-4.3071,-4.3194,-4.3397,-4.3416,-4.3156,-4.3154,-4.3152,0,-4.3276,-4.3301,-4.3351,-4.335,-4.3322,-4.3347,-4.3337,-4.3323,-4.3331,-4.3336,-4.3341,-4.3351,-4.3356,-4.3366,-4.3323,-4.3274,-4.3385,-4.3308,-4.3371,-4.3372,-4.3396,-4.3395,-4.3603,-4.3404,-4.3404,-4.3403,-4.3403,0,-4.3426,-4.3476,-4.3415,-4.3445,-4.3501,-4.3447,-4.3504,-4.3486,-4.3475,-4.3502,-4.3441,-4.3468,-4.3411,-4.3433,-4.34,-4.3452,-4.3455,-4.3441,-4.3432,-4.3446,-4.3448,-4.345,-4.344,-4.3409,-4.3407,-4.3406,-4.3406,0,-4.3594,-4.3554,-4.3604,-4.3575,-4.3569,-4.3611,-4.3586,-4.3615,-4.3589,-4.3624,-4.363,-4.3589,-4.3612,-4.3571,-4.3589,-4.3567,-4.364,-4.3617,-4.3643,-4.3636,-4.3701,-4.3695,-4.3917,-4.3944,-4.3729,-4.3731,-4.3733,0,-4.3691,-4.3728,-4.3704,-4.3718,-4.3711,-4.3734,-4.3743,-4.3693,-4.3705,-4.3698,-4.3728,-4.3746,-4.3757,-4.3798,-4.3771,-4.3785,-4.3761,-4.3839,-4.3763,-4.3777,-4.3763,-4.3761,-4.3765,-4.3854,-4.3856,-4.3858,-4.386,0,-4.3869,-4.3848,-4.3863,-4.3872,-4.3885,-4.389,-4.389,-4.3906,-4.3853,-4.387,-4.3893,-4.3902,-4.3921,-4.3941,-4.3949,-4.3939,-4.3892,-4.3885,-4.39,-4.3914,-4.3928,-4.3922,-4.3685,-4.3879,-4.3877,-4.3876,-4.3875,-4.3874,-4.4004,-4.4034,-4.4023,-4.4042,-4.4038,-4.404,-4.4066,-4.4044,-4.4062,-4.4073,-4.4044,-4.4074,-4.4066,-4.4072,-4.4069,-4.4093,-4.4059,-4.4081,-4.4086,-4.4092,-4.4103,-4.3925,-4.4094,-4.4094,-4.4093,-4.4093,-4.4092,0,-4.4178,-4.4168,-4.4186,-4.419,-4.4206,-4.4161,-4.416,-4.4176,-4.4204,-4.42,-4.4214,-4.4242,-4.4261,-4.4237,-4.4252,-4.4276,-4.4255,-4.4282,-4.4279,-4.4278,-4.4132,-4.4117,-4.4299,-4.4299,-4.4299,-4.4299,-4.4299,-4.4299,-4.427,-4.432,-4.4299,-4.4348,-4.4337,-4.4366,-4.437,-4.4373,-4.437,-4.4404,-4.442,-4.4404,-4.4393,-4.4408,-4.4424,-4.4417,-4.4425,-4.446,-4.4445,-4.4309,-4.4288,-4.4269,-4.4255,-4.4462,-4.4463,-4.4589,-4.459,-4.4591]},{"header":{"parameterUnit":"m.s-1","parameterCategory":1,"la1":30.2991,"la2":30.254,"lo1":-89.0895,"lo2":-89.0444,"dy":0.0017,"dx":0.0017,"nx":28,"ny":28,"refTime":"2025-05-22T21:00:00:Z","depth":0,"parameterNumber":3,"parameterNumberName":"V-component_of_WINDS"},"data":[0,0,0,0,0,0,0,0,0,0,0,0,0,0,0,0,0,0,0,0,0,0,0,0,0,0,0,0,0,0,0,0,0,0,0,0,0,0,0,0,0,0,0,0,0,0,0,0,0,0,0,0,0,0,0,0,0,0,2.6718,2.6718,0,2.6714,2.6714,2.6714,2.676,2.6762,2.6763,2.6764,2.6753,2.6752,2.675,0,0,0,0,0,0,0,0,0,0,0,0,0,2.6759,2.6758,2.6718,2.6718,2.6718,2.6714,2.6714,2.6714,2.676,2.6762,2.6763,2.6765,2.6754,2.6752,2.675,0,0,0,0,0,0,0,0,0,0,0,0,0,2.6746,2.6757,2.6718,2.674,2.6742,2.6714,2.6714,2.6714,2.676,2.6762,2.6764,2.6765,2.6754,2.6752,2.675,2.6698,0,0,2.6743,2.6742,0,0,0,0,0,0,0,0,2.6747,2.6745,2.6737,2.6739,2.6741,2.674,2.6725,2.6708,2.6759,2.6753,2.6764,2.6766,2.6747,2.6745,2.674,2.6697,2.6697,2.6743,2.6742,2.6741,2.674,0,0,0,0,0,0,0,2.6748,2.6745,2.6716,2.6737,2.6739,2.6749,2.6749,2.6722,2.6739,2.6754,2.6757,2.6756,2.6748,2.6742,2.674,2.6697,2.6743,2.6741,2.674,2.6739,2.6612,2.661,0,0,0,0,0,0,2.6747,2.6746,2.6716,2.6716,2.6749,2.6747,2.6747,2.6738,2.6739,2.6742,2.6755,2.6758,2.6745,2.6743,2.674,2.6679,2.6741,2.6739,2.6737,2.6614,2.6612,2.6609,0,0,0,0,0,0,2.6747,2.6744,2.6716,2.6732,2.6729,2.6744,2.6733,2.6737,2.6731,2.674,2.6743,2.6746,2.6746,2.6743,2.6709,2.6679,2.6738,2.6736,2.6617,2.6613,2.6611,2.6557,0,0,0,0,0,0,2.6748,2.6743,2.6725,2.6731,2.6728,2.6686,2.6732,2.6736,2.6728,2.6733,2.6733,2.6734,2.6748,2.6712,2.6707,2.6677,2.6734,2.6619,2.6615,2.6612,2.6561,2.6552,2.6545,0,0,0,0,0,2.675,2.6708,2.6724,2.672,2.6706,2.6685,2.6683,2.6701,2.6726,2.6706,2.6713,2.6734,2.6684,2.6708,2.6702,2.6672,2.6621,2.6616,2.6612,2.6565,2.6554,2.6545,0,0,0,0,0,0,2.6694,2.6709,2.6726,2.6686,2.6684,2.6693,2.6668,2.6689,2.6678,2.6682,2.6704,2.6703,2.6665,2.6666,2.6692,2.6622,2.6657,2.6651,2.6623,2.6613,2.6605,2.6604,2.6732,0,0,0,0,0,2.6678,2.6662,2.6675,2.6638,2.6637,2.6653,2.6644,2.6659,2.6657,2.6655,2.6659,2.6654,2.6638,2.6626,2.6611,2.6563,2.6563,2.654,2.6531,2.6525,2.6518,2.6493,2.6483,2.6594,2.6594,2.6595,0,0,2.6643,2.6649,2.6637,2.6627,2.6627,2.6608,2.6651,2.6629,2.6615,2.6651,2.6619,2.6622,2.6618,2.6577,2.6559,2.6576,2.6488,2.6519,2.6513,2.651,2.6487,2.6477,2.6467,2.6591,2.6592,2.6592,0,0,2.6569,2.6573,2.6543,2.6543,2.6544,2.6556,2.6549,2.6555,2.6559,2.6528,2.6555,2.6538,2.6509,2.6505,2.65,2.6428,2.6447,2.6423,2.6378,2.6354,2.6345,2.6337,2.631,2.6301,2.6417,2.6417,2.6417,0,2.6524,2.6499,2.6524,2.6501,2.6495,2.6532,2.65,2.6499,2.6494,2.6488,2.6509,2.6475,2.6474,2.6433,2.6416,2.6411,2.6402,2.6421,2.6345,2.6337,2.633,2.6305,2.6295,2.6414,2.6414,2.6415,2.6415,0,2.6443,2.6426,2.6401,2.6399,2.6391,2.6363,2.6383,2.6372,2.6389,2.6398,2.6366,2.6368,2.6355,2.6347,2.6361,2.6307,2.6318,2.6341,2.6376,2.6316,2.6292,2.6283,2.6409,2.641,2.6411,2.6412,0,0,2.633,2.6346,2.6336,2.6336,2.6341,2.6327,2.6302,2.6292,2.6281,2.6277,2.6255,2.6232,2.6254,2.6248,2.6263,2.6242,2.6184,2.6267,2.6268,2.625,2.6124,2.6105,2.6094,2.6199,2.6197,2.6196,2.6124,0,2.6258,2.6217,2.6241,2.6196,2.6179,2.6215,2.6193,2.6193,2.6202,2.6188,2.6197,2.6179,2.6211,2.6207,2.6188,2.6195,2.6159,2.6201,2.6176,2.6175,2.6174,2.6082,2.6061,2.5993,2.6115,2.6114,2.6113,0,2.6166,2.6162,2.6116,2.6127,2.6121,2.6101,2.6094,2.6081,2.6082,2.609,2.6085,2.6106,2.608,2.6117,2.6082,2.611,2.6102,2.6104,2.6102,2.6098,2.6138,2.6073,2.5972,2.5961,2.6099,2.61,2.6101,0,2.6087,2.607,2.6041,2.604,2.6051,2.6036,2.604,2.6044,2.6037,2.603,2.6026,2.6016,2.601,2.6001,2.6019,2.6044,2.5981,2.6019,2.5985,2.5984,2.5967,2.5967,2.5861,2.5965,2.5966,2.5966,2.5966,0,2.6002,2.5972,2.6005,2.5987,2.5955,2.5982,2.5949,2.5956,2.596,2.5942,2.5973,2.5955,2.5981,2.5966,2.5979,2.5947,2.5945,2.5949,2.5952,2.5945,2.5944,2.5938,2.5942,2.5963,2.5964,2.5964,2.5965,0,2.5906,2.5928,2.5898,2.5913,2.5916,2.5892,2.5904,2.5886,2.5899,2.5877,2.5873,2.5892,2.5876,2.5894,2.5878,2.5887,2.5845,2.5856,2.5844,2.5847,2.5811,2.5813,2.5695,2.568,2.5796,2.5795,2.5794,0,2.5849,2.5827,2.5841,2.5834,2.5836,2.5823,2.5817,2.5844,2.5836,2.5837,2.5819,2.5807,2.5798,2.5771,2.5782,2.5771,2.5781,2.574,2.5779,2.5772,2.5778,2.5778,2.5776,2.5731,2.5729,2.5728,2.5727,0,2.5745,2.5758,2.5749,2.5745,2.5738,2.5735,2.5734,2.5725,2.5753,2.5743,2.5728,2.5722,2.5709,2.5695,2.5688,2.569,2.5712,2.5716,2.5707,2.5698,2.5692,2.5693,2.5821,2.5718,2.5719,2.5719,2.572,2.572,2.5666,2.5649,2.5656,2.5646,2.5649,2.5649,2.5634,2.5646,2.5636,2.5628,2.5645,2.5626,2.5629,2.5622,2.5622,2.5607,2.5624,2.5612,2.5608,2.5604,2.5598,2.5697,2.5606,2.5606,2.5607,2.5607,2.5607,0,2.5562,2.557,2.5561,2.556,2.5552,2.5579,2.558,2.557,2.5555,2.5557,2.5549,2.5533,2.5521,2.5533,2.5523,2.5508,2.5519,2.5505,2.5504,2.5505,2.5584,2.5592,2.5497,2.5497,2.5497,2.5497,2.5497,2.5497,2.5507,2.5479,2.5493,2.5468,2.5475,2.546,2.5458,2.5457,2.5459,2.5441,2.5432,2.5441,2.5447,2.5439,2.5429,2.5432,2.5426,2.5408,2.5415,2.5488,2.5499,2.5509,2.5517,2.5407,2.5407,2.5337,2.5336,2.5336]}]]